Memphis, TN

10:50 AM CDT on May 24, 2017 (GMT -0500)
Memphis International

Weather History for KMEM - July, 2014

Change the Weather History Date:

Wednesday, July 9, 2014

  Actual Average Record
Temperature  
Mean Temperature 79 °F 83 °F  
Max Temperature 85 °F 92 °F 101 °F (1969)
Min Temperature 73 °F 74 °F 56 °F (1947)
Degree Days  
Heating Degree Days 0 0  
Month to date heating degree days 0 0  
Since 1 June heating degree days 0 0  
Since 1 July heating degree days 0 0  
Cooling Degree Days 14 18  
Month to date cooling degree days 120 158  
Year to date cooling degree days 868 917  
Since 1 June cooling degree days 557 596  
Growing Degree Days 28 (Base 50)    
Moisture  
Dew Point 70 °F    
Average Humidity 73    
Maximum Humidity 87    
Minimum Humidity 59    
Precipitation  
Precipitation 0.03 in 0.15 in 1.46 in (1933)
Month to date precipitation 0.98 1.25  
Year to date precipitation 40.34 29.16  
Snow  
Snow 0.00 in 0.00 in - ()
Month to date snowfall 0.0 0.0  
Since 1 June snowfall 0.0 0.0  
Since 1 July snowfall 0.0 0.0  
Snow Depth 0.00 in    
Sea Level Pressure  
Sea Level Pressure 30.01 in    
Wind  
Wind Speed 5 mph (WSW)    
Max Wind Speed 12 mph    
Max Gust Speed 16 mph    
Visibility 10 miles    
Events Rain , Thunderstorm    
T = Trace of Precipitation, MM = Missing Value Source: NWS Daily Summary

Daily Weather History Graph

Daily Weather History Graph

Search for Another Location

Airport or City:

Trip Planner

Search our weather history database for the weather conditions in past years. The results will help you decide how hot, cold, wet, or windy it might be!

Date:

Astronomy

Jul. 09, 2014 Rise Set
Actual Time 5:53 AM CDT 8:16 PM CDT
Civil Twilight 5:24 AM CDT 8:45 PM CDT
Nautical Twilight 4:48 AM CDT 9:21 PM CDT
Astronomical Twilight 4:08 AM CDT 10:01 PM CDT
Moon 5:30 PM CDT (7/9) 3:08 AM CDT (7/9)
Length of Visible Light 15h 21m
Length of Day
14h 23m
Waxing Gibbous, 89% of the Moon is Illuminated
Jul 9
Waxing Gibbous
Jul 12
Full
Jul 18
Last Quarter
Jul 26
New
Aug 3
First Quarter

Hourly Weather History & Observations

Time (CDT) Temp. Heat Index Dew Point Humidity Pressure Visibility Wind Dir Wind Speed Gust Speed Precip Events Conditions
12:50 AM 75.2 °F - 71.6 °F 89% 30.02 in 9.0 mi Calm Calm - 0.05 in Rain , Thunderstorm Light Thunderstorms and Rain
12:54 AM 75.2 °F - 71.6 °F 89% 30.03 in 9.0 mi Calm Calm - N/A Rain , Thunderstorm Light Thunderstorms and Rain
1:18 AM 75.2 °F - 71.6 °F 89% 30.02 in 8.0 mi Calm Calm - 0.02 in Rain , Thunderstorm Light Thunderstorms and Rain
1:54 AM 75.0 °F - 72.0 °F 90% 29.99 in 9.0 mi South 6.9 mph - 0.03 in Thunderstorm Thunderstorm
2:05 AM 75.2 °F - 71.6 °F 89% 29.99 in 10.0 mi South 6.9 mph - N/A   Overcast
2:54 AM 73.0 °F - 70.0 °F 90% 29.98 in 10.0 mi West 3.5 mph - N/A   Overcast
3:24 AM 73.4 °F - 69.8 °F 88% 29.99 in 10.0 mi WSW 3.5 mph - N/A   Overcast
3:36 AM 73.4 °F - 69.8 °F 88% 29.99 in 10.0 mi WSW 5.8 mph - N/A   Overcast
3:54 AM 73.0 °F - 70.0 °F 90% 29.99 in 10.0 mi WSW 6.9 mph - N/A   Overcast
4:54 AM 73.0 °F - 69.1 °F 87% 29.99 in 10.0 mi West 8.1 mph - N/A   Overcast
5:54 AM 73.0 °F - 68.0 °F 84% 29.98 in 10.0 mi West 6.9 mph - N/A   Overcast
6:54 AM 73.0 °F - 69.1 °F 87% 30.01 in 10.0 mi West 3.5 mph - N/A   Overcast
7:54 AM 73.9 °F - 69.1 °F 85% 30.01 in 10.0 mi SW 3.5 mph - 0.00 in   Overcast
8:54 AM 73.9 °F - 70.0 °F 87% 30.03 in 10.0 mi SW 4.6 mph - N/A   Overcast
9:54 AM 75.9 °F - 70.0 °F 82% 30.03 in 10.0 mi WSW 6.9 mph - N/A   Overcast
10:54 AM 78.1 °F - 70.0 °F 76% 30.04 in 10.0 mi West 10.4 mph - N/A   Overcast
11:49 AM 78.8 °F - 69.8 °F 74% 30.05 in 10.0 mi WNW 10.4 mph - N/A   Overcast
11:54 AM 79.0 °F - 69.1 °F 72% 30.04 in 10.0 mi West 9.2 mph - N/A   Overcast
12:06 PM 78.8 °F - 69.8 °F 74% 30.05 in 10.0 mi West 8.1 mph - N/A   Overcast
12:27 PM 78.8 °F - 69.8 °F 74% 30.06 in 10.0 mi WNW 9.2 mph - N/A   Overcast
12:49 PM 78.8 °F - 69.8 °F 74% 30.05 in 10.0 mi WSW 6.9 mph - N/A   Overcast
12:54 PM 78.1 °F - 69.1 °F 74% 30.04 in 10.0 mi SW 8.1 mph - N/A   Overcast
1:32 PM 78.8 °F - 69.8 °F 74% 30.04 in 10.0 mi WSW 5.8 mph - N/A   Overcast
1:54 PM 79.0 °F - 70.0 °F 74% 30.02 in 10.0 mi West 6.9 mph - N/A   Overcast
2:23 PM 80.6 °F 83.9 °F 69.8 °F 70% 30.03 in 10.0 mi Variable 4.6 mph - N/A   Overcast
2:54 PM 79.0 °F - 70.0 °F 74% 30.01 in 10.0 mi WSW 5.8 mph - N/A   Overcast
3:54 PM 82.0 °F 86.3 °F 71.1 °F 69% 29.99 in 10.0 mi West 3.5 mph - N/A   Mostly Cloudy
4:54 PM 82.9 °F 87.5 °F 71.1 °F 67% 29.99 in 10.0 mi SW 5.8 mph - N/A   Mostly Cloudy
5:54 PM 84.0 °F 89.0 °F 71.1 °F 65% 29.98 in 10.0 mi WSW 4.6 mph - N/A   Mostly Cloudy
6:54 PM 84.0 °F 87.0 °F 68.0 °F 58% 29.98 in 10.0 mi Variable 3.5 mph - N/A   Scattered Clouds
7:54 PM 80.1 °F 82.3 °F 66.9 °F 64% 29.99 in 10.0 mi NW 3.5 mph - N/A   Scattered Clouds
8:54 PM 78.1 °F - 70.0 °F 76% 30.00 in 10.0 mi Calm Calm - N/A   Mostly Cloudy
9:54 PM 77.0 °F - 71.1 °F 82% 30.01 in 10.0 mi Calm Calm - N/A   Scattered Clouds
10:54 PM 73.9 °F - 70.0 °F 87% 30.03 in 10.0 mi Calm Calm - N/A   Scattered Clouds
11:54 PM 75.0 °F - 70.0 °F 84% 30.03 in 10.0 mi Calm Calm - N/A   Scattered Clouds